Find Starlink 30196

NORAD ID: 57448 Int'l Des: 2023-105 Owner: SPXS Country: US Constellation: starlink operational
LEOCIRCULAR

現在のビュー

3D地球を読み込み中...

About Starlink 30196

Starlink 30196 (NORAD 57448) is a starlink constellation satellite (v2 mini) launched Jul 24, 2023 by SPXS of US. It operates in LEO, CIRCULAR orbit with a mass of 730.00 kg.

次回通過

Passes for default location (London). Set your location on the main map for personalized predictions.

高度履歴

Loading altitude history...

軌道要素

1 57448U 23105U 26264.32447113 .00000379 00000-0 23318-4 0 9994
2 57448 43.0059 238.2451 0001594 279.5865 80.4807 15.27579530175304
Epoch: Sep 21, 2026 • Age: 21 hours

現在のステータス

高度 493.5 km
遠地点 / 近地点 N/A
速度 7.62 km/s
衛星直下点 -38.22°S, 30.39°E
打ち上げ日 Jul 24, 2023
運用期間 3.1 years
タイプ internet

技術仕様

分類 Payload
質量 730.00 kg
乾燥質量 700.00 kg
長さ 0.30 m
スパン 29.00 m
形状 ? Box + pan
製造者 SPXS
バスタイプ Starlink V2M
フェーズステータス In Orbit
所有者/国 SPXS/US

Most Searched